This demonstration page uses our WeatherBlox Daily Observations layout. Learn more.

Left ArrowRight Arrow

47.50024, -111.30081

Hourly Observations for July 14, 2020

Temp ( °F °C ) Dew Point ( °F °C ) Humidity (%) Winds ( mph kmh ) Pressure ( in mb ) Visibility ( mi km ) Precip ( " mm )
12:53 am 00:53 Mostly Cloudy 55 12.8 34 1.1 45 45 NNE 6 9 29.96 1015 10 16 0.00 0.00
1:53 am 01:53 Cloudy 52 11.1 36 2.2 55 55 Calm 29.98 1015 10 16 0.00 0.00
2:53 am 02:53 Mostly Clear 52 11.1 36 2.2 55 55 S 5 7 29.98 1015 10 16 0.00 0.00
3:53 am 03:53 Clear 46 7.8 36 2.2 68 68 SSW 12 19 30.00 1016 10 16 0.00 0.00
4:53 am 04:53 Clear 44 6.7 36 2.2 73 73 SSW 9 15 30.01 1016 10 16 0.00 0.00
5:53 am 05:53 Sunny 45 7.2 36 2.2 71 71 SSW 9 15 30.01 1016 10 16 0.00 0.00
6:53 am 06:53 Sunny 49 9.4 37 2.8 64 64 SW 8 13 30.01 1016 10 16 0.00 0.00
7:53 am 07:53 Sunny 55 12.8 37 2.8 51 51 SSW 8 13 30.03 1017 10 16 0.00 0.00
8:53 am 08:53 Sunny 59 15 37 2.8 44 44 SW 9 15 30.03 1017 10 16 0.00 0.00
9:53 am 09:53 Sunny 64 17.8 36 2.2 35 35 W 10 17 30.04 1017 10 16 0.00 0.00
10:53 am 10:53 Sunny 67 19.4 34 1.1 30 30 WSW 9 15 30.02 1017 10 16 0.00 0.00
11:53 am 11:53 Sunny 70 21.1 33 0.6 26 26 SW 12 19 30.00 1016 10 16 0.00 0.00
12:53 pm 12:53 Sunny 71 21.7 33 0.6 25 25 WSW 13 20 30.00 1016 10 16 0.00 0.00
1:53 pm 13:53 Sunny 73 22.8 33 0.6 23 23 WSW 15 24 29.99 1016 10 16 0.00 0.00
2:53 pm 14:53 Sunny 75 23.9 31 -0.6 20 20 WNW 9 15 29.97 1015 10 16 0.00 0.00
3:53 pm 15:53 Sunny 76 24.4 34 1.1 22 22 SW 13 20 29.98 1015 10 16 0.00 0.00
4:53 pm 16:53 Sunny 77 25 33 0.6 20 20 WSW 12 19 29.97 1015 10 16 0.00 0.00
5:53 pm 17:53 Mostly Sunny 78 25.6 26 -3.3 15 15 WNW 10 17 29.96 1015 10 16 0.00 0.00
6:53 pm 18:53 Sunny 77 25 27 -2.8 16 16 NW 10 17 29.96 1015 10 16 0.00 0.00
7:53 pm 19:53 Sunny 74 23.3 27 -2.8 17 17 NW 9 15 29.96 1014 10 16 0.00 0.00
8:53 pm 20:53 Sunny 65 18.3 37 2.8 36 36 N 6 9 29.98 1015 10 16 0.00 0.00
9:53 pm 21:53 Clear 56 13.3 36 2.2 47 47 Calm 30.01 1016 10 16 0.00 0.00
10:53 pm 22:53 Clear 54 12.2 36 2.2 51 51 S 6 9 30.02 1017 10 16 0.00 0.00
11:53 pm 23:53 Clear 56 13.3 35 1.7 46 46 S 9 15 30.01 1016 10 16 0.00 0.00

Powered by AerisWeather